| time (UTC) | temp C | wind direction | speed KPH | gust KPH | rain 1hr cm | rain 24hr cm | rain mn cm | humidity % | barometer mb |
| 20260506140208 | 17 | 191 | 0.0 | 9.7 | 0.00 | 0.00 | 0.00 | 38 | 1015.3 |
| 20260506135708 | 17 | 219 | 6.4 | 9.7 | 0.00 | 0.00 | 0.00 | 37 | 1015.3 |
| 20260506135208 | 16 | 229 | 0.0 | 14.5 | 0.00 | 0.00 | 0.00 | 39 | 1015.3 |
| 20260506134708 | 16 | 208 | 6.4 | 14.5 | 0.00 | 0.00 | 0.00 | 38 | 1015.2 |
| 20260506134208 | 16 | 210 | 9.7 | 14.5 | 0.00 | 0.00 | 0.00 | 38 | 1015.2 |
| 20260506133708 | 16 | 183 | 6.4 | 14.5 | 0.00 | 0.00 | 0.00 | 39 | 1015.0 |
| 20260506133208 | 16 | 121 | 8.0 | 11.3 | 0.00 | 0.00 | 0.00 | 40 | 1015.2 |
| 20260506132708 | 15 | 211 | 6.4 | 12.9 | 0.00 | 0.00 | 0.00 | 41 | 1015.2 |
| 20260506132208 | 15 | 179 | 9.7 | 12.9 | 0.00 | 0.00 | 0.00 | 42 | 1015.0 |
| 20260506131708 | 15 | 160 | 6.4 | 9.7 | 0.00 | 0.00 | 0.00 | 44 | 1014.9 |
| 20260506131208 | 13 | 184 | 0.0 | 0.0 | 0.00 | 0.00 | 0.00 | 45 | 1014.9 |
| 20260506130708 | 13 | 184 | 0.0 | 0.0 | 0.00 | 0.00 | 0.00 | 46 | 1014.8 |
| 20260506130208 | 13 | 184 | 0.0 | 4.8 | 0.00 | 0.00 | 0.00 | 47 | 1014.8 |
| 20260506125708 | 13 | 184 | 0.0 | 8.0 | 0.00 | 0.00 | 0.00 | 46 | 1014.7 |
| 20260506125208 | 13 | 155 | 3.2 | 8.0 | 0.00 | 0.00 | 0.00 | 46 | 1014.7 |
| 20260506124708 | 13 | 188 | 0.0 | 0.0 | 0.00 | 0.00 | 0.00 | 46 | 1014.7 |
| 20260506124208 | 13 | 188 | 0.0 | 0.0 | 0.00 | 0.00 | 0.00 | 46 | 1014.6 |
| 20260506123708 | 13 | 188 | 0.0 | 0.0 | 0.00 | 0.00 | 0.00 | 46 | 1014.6 |
| 20260506123208 | 13 | 188 | 0.0 | 0.0 | 0.00 | 0.00 | 0.00 | 47 | 1014.5 |
| 20260506122708 | 12 | 188 | 0.0 | 0.0 | 0.00 | 0.00 | 0.00 | 48 | 1014.5 |
| 20260506122208 | 12 | 188 | 0.0 | 0.0 | 0.00 | 0.00 | 0.00 | 48 | 1014.3 |
| 20260506121708 | 12 | 188 | 0.0 | 6.4 | 0.00 | 0.00 | 0.00 | 48 | 1014.2 |
| 20260506121208 | 12 | 188 | 0.0 | 6.4 | 0.00 | 0.00 | 0.00 | 48 | 1014.2 |
| 20260506120708 | 12 | 159 | 0.0 | 0.0 | 0.00 | 0.00 | 0.00 | 47 | 1014.1 |
| 20260506120208 | 13 | 159 | 0.0 | 0.0 | 0.00 | 0.00 | 0.00 | 47 | 1014.0 |
| 20260506115708 | 13 | 159 | 0.0 | 0.0 | 0.00 | 0.00 | 0.00 | 47 | 1014.0 |
| 20260506115208 | 13 | 159 | 0.0 | 0.0 | 0.00 | 0.00 | 0.00 | 47 | 1014.0 |
| 20260506114708 | 13 | 159 | 0.0 | 0.0 | 0.00 | 0.00 | 0.00 | 46 | 1013.9 |
| 20260506114208 | 13 | 159 | 0.0 | 0.0 | 0.00 | 0.00 | 0.00 | 46 | 1013.9 |
| 20260506113708 | 13 | 159 | 0.0 | 6.4 | 0.00 | 0.00 | 0.00 | 45 | 1013.9 |
| 20260506113208 | 13 | 159 | 3.2 | 6.4 | 0.00 | 0.00 | 0.00 | 45 | 1013.9 |
| 20260506112708 | 14 | 250 | 0.0 | 0.0 | 0.00 | 0.00 | 0.00 | 44 | 1014.0 |
| 20260506112208 | 15 | 250 | 0.0 | 8.0 | 0.00 | 0.00 | 0.00 | 42 | 1014.0 |
| 20260506111708 | 15 | 250 | 0.0 | 12.9 | 0.00 | 0.00 | 0.00 | 42 | 1014.0 |
| 20260506111208 | 14 | 135 | 4.8 | 12.9 | 0.00 | 0.00 | 0.00 | 43 | 1013.9 |
| 20260506110708 | 13 | 186 | 0.0 | 0.0 | 0.00 | 0.00 | 0.00 | 45 | 1013.9 |
| 20260506110208 | 13 | 186 | 0.0 | 0.0 | 0.00 | 0.00 | 0.00 | 45 | 1013.9 |
| 20260506105708 | 13 | 186 | 0.0 | 0.0 | 0.00 | 0.00 | 0.00 | 44 | 1013.8 |
| 20260506105208 | 14 | 186 | 0.0 | 0.0 | 0.00 | 0.00 | 0.00 | 44 | 1013.8 |
| 20260506104708 | 15 | 186 | 0.0 | 11.3 | 0.00 | 0.00 | 0.00 | 43 | 1013.6 |
| 20260506104408 | 15 | 186 | 0.0 | 11.3 | 0.00 | 0.00 | 0.00 | 42 | 1013.6 |
| 20260506103908 | 15 | 153 | 6.4 | 11.3 | 0.00 | 0.00 | 0.00 | 42 | 1013.6 |
| 20260506103212 | 15 | 180 | 0.0 | 6.4 | 0.00 | 0.00 | 0.00 | 41 | 1013.6 |
| 20260506102712 | 15 | 180 | 0.0 | 8.0 | 0.00 | 0.00 | 0.00 | 41 | 1013.5 |
| 20260506102212 | 15 | 177 | 1.6 | 8.0 | 0.00 | 0.00 | 0.00 | 41 | 1013.5 |
| 20260506101712 | 15 | 217 | 0.0 | 4.8 | 0.00 | 0.00 | 0.00 | 41 | 1013.5 |
| 20260506101212 | 16 | 217 | 0.0 | 11.3 | 0.00 | 0.00 | 0.00 | 40 | 1013.5 |
| 20260506100712 | 16 | 193 | 0.0 | 14.5 | 0.00 | 0.00 | 0.00 | 39 | 1013.5 |
| 20260506100212 | 16 | 170 | 8.0 | 17.7 | 0.00 | 0.00 | 0.00 | 40 | 1013.3 |
| 20260506095712 | 15 | 193 | 11.3 | 17.7 | 0.00 | 0.00 | 0.00 | 41 | 1013.3 |
| 20260506095212 | 15 | 166 | 6.4 | 12.9 | 0.00 | 0.00 | 0.00 | 42 | 1013.3 |
| 20260506094712 | 15 | 153 | 6.4 | 11.3 | 0.00 | 0.00 | 0.00 | 42 | 1013.3 |
| 20260506094212 | 15 | 166 | 6.4 | 11.3 | 0.00 | 0.00 | 0.00 | 42 | 1013.2 |
| 20260506093712 | 15 | 138 | 6.4 | 11.3 | 0.00 | 0.00 | 0.00 | 42 | 1013.2 |
| 20260506093212 | 15 | 166 | 6.4 | 9.7 | 0.00 | 0.00 | 0.00 | 42 | 1013.2 |
| 20260506092712 | 15 | 155 | 0.0 | 9.7 | 0.00 | 0.00 | 0.00 | 41 | 1013.1 |
| 20260506092212 | 15 | 179 | 4.8 | 9.7 | 0.00 | 0.00 | 0.00 | 40 | 1013.1 |
| 20260506091712 | 15 | 181 | 3.2 | 8.0 | 0.00 | 0.00 | 0.00 | 40 | 1013.1 |
| 20260506091212 | 15 | 166 | 4.8 | 6.4 | 0.00 | 0.00 | 0.00 | 40 | 1013.1 |
| 20260506090712 | 16 | 184 | 0.0 | 12.9 | 0.00 | 0.00 | 0.00 | 39 | 1012.9 |
| 20260506090212 | 16 | 184 | 6.4 | 14.5 | 0.00 | 0.00 | 0.00 | 38 | 1012.9 |
| 20260506085712 | 16 | 212 | 8.0 | 14.5 | 0.00 | 0.00 | 0.00 | 38 | 1012.9 |
| 20260506085212 | 16 | 169 | 4.8 | 14.5 | 0.00 | 0.00 | 0.00 | 37 | 1012.8 |
| 20260506084712 | 16 | 205 | 8.0 | 16.1 | 0.00 | 0.00 | 0.00 | 37 | 1012.8 |
| 20260506084212 | 16 | 177 | 9.7 | 20.9 | 0.00 | 0.00 | 0.00 | 37 | 1012.8 |
| 20260506083712 | 16 | 155 | 11.3 | 20.9 | 0.00 | 0.00 | 0.00 | 37 | 1012.7 |
| 20260506083212 | 16 | 204 | 8.0 | 19.3 | 0.00 | 0.00 | 0.00 | 37 | 1012.7 |
| 20260506082712 | 16 | 172 | 6.4 | 11.3 | 0.00 | 0.00 | 0.00 | 38 | 1012.7 |
| 20260506082212 | 16 | 176 | 6.4 | 12.9 | 0.00 | 0.00 | 0.00 | 37 | 1012.7 |
| 20260506081712 | 16 | 177 | 8.0 | 14.5 | 0.00 | 0.00 | 0.00 | 37 | 1012.7 |
| 20260506081212 | 16 | 152 | 9.7 | 14.5 | 0.00 | 0.00 | 0.00 | 36 | 1012.7 |
| 20260506080712 | 16 | 176 | 9.7 | 14.5 | 0.00 | 0.00 | 0.00 | 36 | 1012.7 |
| 20260506080212 | 16 | 200 | 8.0 | 14.5 | 0.00 | 0.00 | 0.00 | 36 | 1012.7 |
| 20260506073212 | 16 | 170 | 6.4 | 9.7 | 0.00 | 0.00 | 0.00 | 35 | 1012.6 |
| 20260506072712 | 16 | 145 | 6.4 | 11.3 | 0.00 | 0.00 | 0.00 | 35 | 1012.6 |
| 20260506072212 | 16 | 152 | 8.0 | 14.5 | 0.00 | 0.00 | 0.00 | 34 | 1012.5 |
| 20260506071712 | 16 | 177 | 8.0 | 14.5 | 0.00 | 0.00 | 0.00 | 33 | 1012.5 |
| 20260506071212 | 16 | 190 | 8.0 | 12.9 | 0.00 | 0.00 | 0.00 | 33 | 1012.5 |
| 20260506070711 | 16 | 187 | 6.4 | 11.3 | 0.00 | 0.00 | 0.00 | 33 | 1012.6 |
| 20260506070211 | 16 | 231 | 4.8 | 11.3 | 0.00 | 0.00 | 0.00 | 33 | 1012.5 |
| 20260506062211 | 17 | 167 | 11.3 | 17.7 | 0.00 | 0.00 | 0.00 | 30 | 1012.0 |
| 20260506061711 | 17 | 146 | 6.4 | 12.9 | 0.00 | 0.00 | 0.00 | 31 | 1012.0 |
| 20260506061211 | 17 | 191 | 8.0 | 17.7 | 0.00 | 0.00 | 0.00 | 31 | 1011.9 |
| 20260506060711 | 17 | 203 | 9.7 | 17.7 | 0.00 | 0.00 | 0.00 | 30 | 1011.9 |
| 20260506060211 | 17 | 194 | 9.7 | 14.5 | 0.00 | 0.00 | 0.00 | 30 | 1011.9 |
| 20260506051211 | 18 | 190 | 9.7 | 19.3 | 0.00 | 0.00 | 0.00 | 31 | 1011.4 |
| 20260506050711 | 18 | 194 | 11.3 | 19.3 | 0.00 | 0.00 | 0.00 | 31 | 1011.4 |
| 20260506050211 | 18 | 198 | 11.3 | 16.1 | 0.00 | 0.00 | 0.00 | 32 | 1011.4 |
| 20260506044711 | 18 | 163 | 11.3 | 19.3 | 0.00 | 0.00 | 0.00 | 33 | 1011.2 |
| 20260506044211 | 18 | 180 | 9.7 | 16.1 | 0.00 | 0.00 | 0.00 | 34 | 1011.2 |
| 20260506043711 | 18 | 180 | 9.7 | 16.1 | 0.00 | 0.00 | 0.00 | 34 | 1011.2 |
| 20260506043211 | 18 | 190 | 8.0 | 14.5 | 0.00 | 0.00 | 0.00 | 34 | 1011.1 |
| 20260506042711 | 18 | 156 | 8.0 | 14.5 | 0.00 | 0.00 | 0.00 | 34 | 1011.1 |
| 20260506042211 | 18 | 170 | 9.7 | 12.9 | 0.00 | 0.00 | 0.00 | 34 | 1011.1 |
| 20260506041711 | 18 | 198 | 8.0 | 11.3 | 0.00 | 0.00 | 0.00 | 34 | 1011.0 |
| 20260506041211 | 18 | 179 | 8.0 | 11.3 | 0.00 | 0.00 | 0.00 | 34 | 1011.0 |
| 20260506040711 | 18 | 190 | 6.4 | 14.5 | 0.00 | 0.00 | 0.00 | 34 | 1010.8 |
| 20260506040211 | 18 | 187 | 6.4 | 14.5 | 0.00 | 0.00 | 0.00 | 34 | 1010.7 |
| 20260506035711 | 18 | 174 | 8.0 | 11.3 | 0.00 | 0.00 | 0.00 | 34 | 1010.7 |
| 20260506035211 | 18 | 195 | 8.0 | 11.3 | 0.00 | 0.00 | 0.00 | 34 | 1010.7 |
| 20260506034711 | 18 | 179 | 6.4 | 12.9 | 0.00 | 0.00 | 0.00 | 34 | 1010.6 |
| 20260506034211 | 18 | 191 | 6.4 | 12.9 | 0.00 | 0.00 | 0.00 | 34 | 1010.5 |
| 20260506033711 | 18 | 173 | 8.0 | 12.9 | 0.00 | 0.00 | 0.00 | 35 | 1010.5 |
| 20260506033211 | 18 | 186 | 6.4 | 9.7 | 0.00 | 0.00 | 0.00 | 35 | 1010.5 |
| 20260506032711 | 19 | 214 | 4.8 | 8.0 | 0.00 | 0.00 | 0.00 | 34 | 1010.5 |
| 20260506032211 | 19 | 190 | 4.8 | 9.7 | 0.00 | 0.00 | 0.00 | 34 | 1010.5 |
| 20260506031711 | 19 | 190 | 6.4 | 14.5 | 0.00 | 0.00 | 0.00 | 34 | 1010.4 |
| 20260506031211 | 19 | 184 | 6.4 | 14.5 | 0.00 | 0.00 | 0.00 | 33 | 1010.4 |
| 20260506030711 | 19 | 188 | 6.4 | 14.5 | 0.00 | 0.00 | 0.00 | 33 | 1010.3 |
| 20260506030211 | 19 | 201 | 6.4 | 12.9 | 0.00 | 0.00 | 0.00 | 34 | 1010.3 |
| 20260506025711 | 19 | 184 | 6.4 | 12.9 | 0.00 | 0.00 | 0.00 | 34 | 1010.3 |
| 20260506025211 | 19 | 215 | 4.8 | 11.3 | 0.00 | 0.00 | 0.00 | 34 | 1010.1 |
| 20260506024711 | 19 | 195 | 6.4 | 12.9 | 0.00 | 0.00 | 0.00 | 34 | 1010.1 |
| 20260506024211 | 19 | 187 | 8.0 | 12.9 | 0.00 | 0.00 | 0.00 | 34 | 1010.1 |
| 20260506023711 | 19 | 197 | 3.2 | 11.3 | 0.00 | 0.00 | 0.00 | 34 | 1009.9 |
| 20260506023211 | 19 | 180 | 6.4 | 9.7 | 0.00 | 0.00 | 0.00 | 34 | 1010.0 |
| 20260506022711 | 20 | 173 | 0.0 | 11.3 | 0.00 | 0.00 | 0.00 | 33 | 1009.9 |
| 20260506022211 | 20 | 181 | 4.8 | 12.9 | 0.00 | 0.00 | 0.00 | 33 | 1009.9 |
| 20260506021711 | 20 | 181 | 6.4 | 14.5 | 0.00 | 0.00 | 0.00 | 33 | 1009.9 |
| 20260506021211 | 20 | 198 | 9.7 | 14.5 | 0.00 | 0.00 | 0.00 | 33 | 1009.9 |
| 20260506020711 | 20 | 203 | 6.4 | 12.9 | 0.00 | 0.00 | 0.00 | 33 | 1009.8 |
| 20260506020211 | 20 | 183 | 6.4 | 12.9 | 0.00 | 0.00 | 0.00 | 32 | 1009.8 |
| 20260506015711 | 20 | 186 | 8.0 | 11.3 | 0.00 | 0.00 | 0.00 | 32 | 1009.8 |
| 20260506015211 | 20 | 204 | 8.0 | 11.3 | 0.00 | 0.00 | 0.00 | 32 | 1009.8 |
| 20260506014711 | 20 | 204 | 6.4 | 14.5 | 0.00 | 0.00 | 0.00 | 31 | 1009.7 |
| 20260506014211 | 21 | 205 | 9.7 | 16.1 | 0.00 | 0.00 | 0.00 | 31 | 1009.7 |
| 20260506013711 | 21 | 179 | 11.3 | 16.1 | 0.00 | 0.00 | 0.00 | 30 | 1009.6 |
| 20260506013211 | 21 | 174 | 9.7 | 16.1 | 0.00 | 0.00 | 0.00 | 30 | 1009.6 |
| 20260506012711 | 21 | 174 | 9.7 | 17.7 | 0.00 | 0.00 | 0.00 | 30 | 1009.7 |
| 20260506012211 | 21 | 195 | 14.5 | 17.7 | 0.00 | 0.00 | 0.00 | 29 | 1009.7 |
| 20260506011711 | 21 | 225 | 9.7 | 20.9 | 0.00 | 0.00 | 0.00 | 29 | 1009.6 |
| 20260506011211 | 21 | 187 | 9.7 | 22.5 | 0.00 | 0.00 | 0.00 | 29 | 1009.7 |
| 20260506010711 | 21 | 162 | 8.0 | 22.5 | 0.00 | 0.00 | 0.00 | 29 | 1009.7 |
| 20260506010211 | 21 | 201 | 12.9 | 22.5 | 0.00 | 0.00 | 0.00 | 28 | 1009.7 |
| 20260506005711 | 21 | 212 | 14.5 | 22.5 | 0.00 | 0.00 | 0.00 | 28 | 1009.6 |
| 20260506005211 | 21 | 212 | 12.9 | 22.5 | 0.00 | 0.00 | 0.00 | 27 | 1009.7 |
| 20260506004711 | 21 | 236 | 8.0 | 20.9 | 0.00 | 0.00 | 0.00 | 27 | 1009.7 |
| 20260506004211 | 21 | 236 | 4.8 | 27.4 | 0.00 | 0.00 | 0.00 | 27 | 1009.7 |
| 20260506003711 | 21 | 201 | 12.9 | 27.4 | 0.00 | 0.00 | 0.00 | 26 | 1009.4 |
| 20260506003211 | 22 | 228 | 9.7 | 22.5 | 0.00 | 0.00 | 0.00 | 26 | 1009.4 |
| 20260506002711 | 22 | 194 | 9.7 | 25.7 | 0.00 | 0.00 | 0.00 | 27 | 1009.4 |
| 20260506002211 | 22 | 222 | 9.7 | 25.7 | 0.00 | 0.00 | 0.00 | 26 | 1009.4 |
| 20260506001711 | 22 | 257 | 9.7 | 32.2 | 0.00 | 0.00 | 0.00 | 26 | 1009.6 |
| 20260506001211 | 22 | 260 | 6.4 | 32.2 | 0.00 | 0.00 | 0.00 | 26 | 1009.6 |
| 20260506000711 | 22 | 224 | 9.7 | 22.5 | 0.00 | 0.00 | 0.00 | 26 | 1009.7 |
| 20260506000212 | 22 | 239 | 11.3 | 24.1 | 0.00 | 0.00 | 0.00 | 26 | 1009.6 |
| 20260505235711 | 22 | 194 | 12.9 | 24.1 | 0.00 | 0.00 | 0.00 | 26 | 1009.6 |
| 20260505235211 | 21 | 188 | 4.8 | 29.0 | 0.00 | 0.00 | 0.00 | 29 | 1009.6 |
| 20260505234711 | 21 | 211 | 20.9 | 29.0 | 0.00 | 0.00 | 0.00 | 31 | 1009.7 |
| 20260505234211 | 21 | 200 | 14.5 | 24.1 | 0.00 | 0.00 | 0.00 | 32 | 1009.7 |
| 20260505233711 | 21 | 170 | 16.1 | 25.7 | 0.00 | 0.00 | 0.00 | 32 | 1009.8 |
| 20260505233211 | 21 | 193 | 16.1 | 32.2 | 0.00 | 0.00 | 0.00 | 33 | 1009.8 |
| 20260505232711 | 21 | 204 | 16.1 | 32.2 | 0.00 | 0.00 | 0.00 | 32 | 1009.7 |
| 20260505232211 | 21 | 226 | 16.1 | 27.4 | 0.00 | 0.00 | 0.00 | 34 | 1009.7 |
| 20260505231711 | 21 | 198 | 17.7 | 30.6 | 0.00 | 0.00 | 0.00 | 34 | 1009.7 |
| 20260505231211 | 21 | 156 | 16.1 | 30.6 | 0.00 | 0.00 | 0.00 | 34 | 1009.6 |
| 20260505230711 | 21 | 169 | 17.7 | 30.6 | 0.00 | 0.00 | 0.00 | 34 | 1009.7 |
| 20260505230211 | 21 | 172 | 20.9 | 32.2 | 0.00 | 0.00 | 0.00 | 34 | 1009.9 |
| 20260505225711 | 21 | 172 | 22.5 | 32.2 | 0.00 | 0.00 | 0.00 | 34 | 1009.9 |
| 20260505225211 | 21 | 207 | 14.5 | 29.0 | 0.00 | 0.00 | 0.00 | 33 | 1010.0 |
| 20260505224711 | 21 | 219 | 19.3 | 30.6 | 0.00 | 0.00 | 0.00 | 34 | 1010.1 |
| 20260505224211 | 21 | 156 | 19.3 | 30.6 | 0.00 | 0.00 | 0.00 | 34 | 1010.1 |
| 20260505223711 | 21 | 229 | 16.1 | 27.4 | 0.00 | 0.00 | 0.00 | 34 | 1010.0 |
| 20260505223211 | 21 | 201 | 14.5 | 27.4 | 0.00 | 0.00 | 0.00 | 35 | 1010.3 |
| 20260505222711 | 21 | 197 | 9.7 | 30.6 | 0.00 | 0.00 | 0.00 | 35 | 1010.4 |
| 20260505222211 | 21 | 219 | 17.7 | 30.6 | 0.00 | 0.00 | 0.00 | 35 | 1010.4 |
| 20260505221711 | 21 | 217 | 14.5 | 32.2 | 0.00 | 0.00 | 0.00 | 35 | 1010.5 |
| 20260505221211 | 21 | 204 | 19.3 | 32.2 | 0.00 | 0.00 | 0.00 | 35 | 1010.6 |
| 20260505220710 | 21 | 201 | 17.7 | 29.0 | 0.00 | 0.00 | 0.00 | 35 | 1010.8 |
| 20260505220210 | 21 | 204 | 19.3 | 29.0 | 0.00 | 0.00 | 0.00 | 35 | 1010.8 |
| 20260505215710 | 21 | 240 | 16.1 | 29.0 | 0.00 | 0.00 | 0.00 | 35 | 1011.0 |
| 20260505215210 | 21 | 238 | 4.8 | 25.7 | 0.00 | 0.00 | 0.00 | 35 | 1011.0 |
| 20260505214710 | 21 | 239 | 6.4 | 25.7 | 0.00 | 0.00 | 0.00 | 35 | 1011.0 |
| 20260505214210 | 21 | 243 | 12.9 | 24.1 | 0.00 | 0.00 | 0.00 | 34 | 1011.1 |
| 20260505213710 | 21 | 195 | 4.8 | 24.1 | 0.00 | 0.00 | 0.00 | 36 | 1011.1 |
| 20260505213210 | 21 | 184 | 12.9 | 30.6 | 0.00 | 0.00 | 0.00 | 35 | 1011.2 |
| 20260505212710 | 21 | 156 | 16.1 | 30.6 | 0.00 | 0.00 | 0.00 | 36 | 1011.3 |
| 20260505212210 | 21 | 226 | 11.3 | 30.6 | 0.00 | 0.00 | 0.00 | 37 | 1011.4 |
| 20260505211710 | 21 | 160 | 19.3 | 30.6 | 0.00 | 0.00 | 0.00 | 35 | 1011.5 |
| 20260505211210 | 21 | 210 | 6.4 | 24.1 | 0.00 | 0.00 | 0.00 | 37 | 1011.7 |
| 20260505210710 | 21 | 215 | 11.3 | 24.1 | 0.00 | 0.00 | 0.00 | 37 | 1011.8 |
| 20260505210210 | 21 | 172 | 12.9 | 22.5 | 0.00 | 0.00 | 0.00 | 38 | 1011.9 |
| 20260505205710 | 21 | 219 | 14.5 | 25.7 | 0.00 | 0.00 | 0.00 | 38 | 1012.0 |
| 20260505205210 | 20 | 208 | 6.4 | 25.7 | 0.00 | 0.00 | 0.00 | 39 | 1012.1 |
| 20260505204710 | 20 | 197 | 14.5 | 22.5 | 0.00 | 0.00 | 0.00 | 40 | 1012.2 |
| 20260505204210 | 20 | 195 | 11.3 | 27.4 | 0.00 | 0.00 | 0.00 | 40 | 1012.4 |
| 20260505203710 | 20 | 222 | 12.9 | 27.4 | 0.00 | 0.00 | 0.00 | 40 | 1012.5 |
| 20260505203210 | 20 | 222 | 14.5 | 27.4 | 0.00 | 0.00 | 0.00 | 40 | 1012.5 |
| 20260505202710 | 20 | 200 | 12.9 | 27.4 | 0.00 | 0.00 | 0.00 | 41 | 1012.6 |
| 20260505202210 | 20 | 235 | 8.0 | 27.4 | 0.00 | 0.00 | 0.00 | 42 | 1012.7 |
| 20260505201710 | 19 | 214 | 19.3 | 27.4 | 0.00 | 0.00 | 0.00 | 43 | 1012.8 |
| 20260505201210 | 19 | 259 | 8.0 | 32.2 | 0.00 | 0.00 | 0.00 | 43 | 1012.9 |
| 20260505200710 | 19 | 231 | 12.9 | 32.2 | 0.00 | 0.00 | 0.00 | 44 | 1012.9 |
| 20260505200210 | 19 | 218 | 14.5 | 29.0 | 0.00 | 0.00 | 0.00 | 44 | 1012.8 |
| 20260505195710 | 18 | 222 | 9.7 | 30.6 | 0.00 | 0.00 | 0.00 | 43 | 1012.8 |
| 20260505195210 | 19 | 218 | 12.9 | 30.6 | 0.00 | 0.00 | 0.00 | 43 | 1012.7 |
| 20260505194710 | 19 | 226 | 6.4 | 19.3 | 0.00 | 0.00 | 0.00 | 43 | 1012.8 |
| 20260505194210 | 19 | 232 | 11.3 | 32.2 | 0.00 | 0.00 | 0.00 | 43 | 1012.8 |
| 20260505193710 | 19 | 225 | 9.7 | 32.2 | 0.00 | 0.00 | 0.00 | 42 | 1012.8 |
| 20260505193210 | 19 | 250 | 8.0 | 25.7 | 0.00 | 0.00 | 0.00 | 42 | 1012.7 |
| 20260505192710 | 19 | 197 | 11.3 | 30.6 | 0.00 | 0.00 | 0.00 | 41 | 1012.9 |
| 20260505192210 | 19 | 269 | 16.1 | 30.6 | 0.00 | 0.00 | 0.00 | 40 | 1012.7 |
| 20260505191710 | 20 | 271 | 9.7 | 19.3 | 0.00 | 0.00 | 0.00 | 39 | 1012.7 |
| 20260505191210 | 19 | 263 | 4.8 | 19.3 | 0.00 | 0.00 | 0.00 | 40 | 1012.6 |
| 20260505190710 | 19 | 158 | 11.3 | 19.3 | 0.00 | 0.00 | 0.00 | 40 | 1012.6 |
| 20260505190210 | 19 | 252 | 11.3 | 19.3 | 0.00 | 0.00 | 0.00 | 39 | 1012.6 |
| 20260505185710 | 19 | 229 | 9.7 | 20.9 | 0.00 | 0.00 | 0.00 | 39 | 1012.5 |
| 20260505185210 | 19 | 226 | 8.0 | 20.9 | 0.00 | 0.00 | 0.00 | 38 | 1012.2 |
| 20260505184710 | 19 | 210 | 9.7 | 20.9 | 0.00 | 0.00 | 0.00 | 38 | 1012.2 |
| 20260505184210 | 19 | 215 | 11.3 | 27.4 | 0.00 | 0.00 | 0.00 | 38 | 1012.6 |
| 20260505183710 | 19 | 169 | 12.9 | 27.4 | 0.00 | 0.00 | 0.00 | 38 | 1012.6 |
| 20260505183210 | 20 | 170 | 17.7 | 25.7 | 0.00 | 0.00 | 0.00 | 35 | 1012.7 |
| 20260505182710 | 21 | 218 | 6.4 | 25.7 | 0.00 | 0.00 | 0.00 | 32 | 1012.5 |
| 20260505182210 | 21 | 259 | 1.6 | 12.9 | 0.00 | 0.00 | 0.00 | 32 | 1012.4 |
| 20260505181710 | 21 | 255 | 0.0 | 6.4 | 0.00 | 0.00 | 0.00 | 33 | 1012.1 |
| 20260505181210 | 20 | 255 | 0.0 | 12.9 | 0.00 | 0.00 | 0.00 | 33 | 1012.2 |
| 20260505180710 | 20 | 228 | 0.0 | 12.9 | 0.00 | 0.00 | 0.00 | 34 | 1012.4 |
| 20260505180210 | 20 | 197 | 4.8 | 16.1 | 0.00 | 0.00 | 0.00 | 33 | 1012.5 |
| 20260505175710 | 20 | 193 | 6.4 | 17.7 | 0.00 | 0.00 | 0.00 | 33 | 1012.6 |
| 20260505175210 | 19 | 191 | 8.0 | 19.3 | 0.00 | 0.00 | 0.00 | 33 | 1012.6 |
| 20260505174710 | 19 | 194 | 14.5 | 19.3 | 0.00 | 0.00 | 0.00 | 32 | 1012.6 |
| 20260505174210 | 19 | 208 | 8.0 | 20.9 | 0.00 | 0.00 | 0.00 | 33 | 1012.5 |
| 20260505173710 | 19 | 197 | 11.3 | 22.5 | 0.00 | 0.00 | 0.00 | 33 | 1012.6 |
| 20260505173210 | 19 | 219 | 8.0 | 22.5 | 0.00 | 0.00 | 0.00 | 33 | 1012.6 |
| 20260505172710 | 19 | 195 | 12.9 | 22.5 | 0.00 | 0.00 | 0.00 | 34 | 1012.6 |
| 20260505172210 | 20 | 200 | 12.9 | 22.5 | 0.00 | 0.00 | 0.00 | 34 | 1012.6 |
| 20260505171710 | 20 | 177 | 16.1 | 22.5 | 0.00 | 0.00 | 0.00 | 34 | 1012.5 |
| 20260505171210 | 20 | 228 | 8.0 | 17.7 | 0.00 | 0.00 | 0.00 | 31 | 1012.5 |
| 20260505170710 | 20 | 193 | 11.3 | 19.3 | 0.00 | 0.00 | 0.00 | 31 | 1012.5 |
| 20260505170210 | 20 | 219 | 9.7 | 19.3 | 0.00 | 0.00 | 0.00 | 31 | 1012.5 |
| 20260505165710 | 20 | 155 | 4.8 | 16.1 | 0.00 | 0.00 | 0.00 | 31 | 1012.5 |
| 20260505165210 | 20 | 174 | 11.3 | 19.3 | 0.00 | 0.00 | 0.00 | 32 | 1012.5 |
| 20260505164710 | 19 | 184 | 11.3 | 19.3 | 0.00 | 0.00 | 0.00 | 32 | 1012.5 |
| 20260505164210 | 20 | 190 | 11.3 | 17.7 | 0.00 | 0.00 | 0.00 | 32 | 1012.5 |
| 20260505163710 | 20 | 191 | 3.2 | 14.5 | 0.00 | 0.00 | 0.00 | 33 | 1012.2 |
| 20260505163210 | 20 | 211 | 4.8 | 14.5 | 0.00 | 0.00 | 0.00 | 34 | 1012.2 |
| 20260505162710 | 19 | 188 | 4.8 | 14.5 | 0.00 | 0.00 | 0.00 | 34 | 1012.2 |
| 20260505162210 | 19 | 228 | 0.0 | 9.7 | 0.00 | 0.00 | 0.00 | 35 | 1012.4 |
| 20260505161710 | 18 | 201 | 0.0 | 12.9 | 0.00 | 0.00 | 0.00 | 35 | 1012.6 |
| 20260505161210 | 18 | 228 | 8.0 | 16.1 | 0.00 | 0.00 | 0.00 | 35 | 1012.7 |
| 20260505160710 | 18 | 129 | 0.0 | 16.1 | 0.00 | 0.00 | 0.00 | 35 | 1012.7 |
| 20260505160210 | 18 | 231 | 6.4 | 12.9 | 0.00 | 0.00 | 0.00 | 35 | 1012.9 |
| 20260505153210 | 18 | 193 | 8.0 | 14.5 | 0.00 | 0.00 | 0.00 | 35 | 1012.4 |
| 20260505152710 | 18 | 165 | 6.4 | 16.1 | 0.00 | 0.00 | 0.00 | 36 | 1012.5 |
| 20260505152210 | 18 | 180 | 9.7 | 16.1 | 0.00 | 0.00 | 0.00 | 37 | 1012.5 |
| 20260505151710 | 18 | 197 | 8.0 | 16.1 | 0.00 | 0.00 | 0.00 | 37 | 1012.5 |
| 20260505151210 | 18 | 222 | 11.3 | 14.5 | 0.00 | 0.00 | 0.00 | 37 | 1012.4 |
| 20260505150710 | 18 | 193 | 8.0 | 16.1 | 0.00 | 0.00 | 0.00 | 37 | 1012.2 |
| 20260505150210 | 18 | 208 | 8.0 | 17.7 | 0.00 | 0.00 | 0.00 | 37 | 1012.2 |